Location: Newark
(33.6333°S, 78.8500°W)
Time: 14:52:28
(UTC+00:00)

Courier 1B - Pass Details

Date: 25 September 2019
Orbit: 962 x 1209 km, 28.3° (Epoch: 18 October)

Event Time Altitude Azimuth Distance (km) Brightness Sun altitude
Rises 01:25:57 0° 269° (W) 4,001 11.8 -27.8°
Reaches altitude 10° 01:28:59 10° 276° (W) 3,003 10.8 -28.4°
Maximum altitude 01:35:47 41° 343° (NNW) 1,510 8.3 -29.7°
Enters shadow 01:36:02 41° 348° (NNW) 1,511 8.3 -29.8°
Drops below altitude 10° 01:42:11 10° 51° (NE) 2,822 - -30.9°
Sets 01:44:58 0° 58° (ENE) 3,737 - -31.5°
